Wind_Speed
16 16 13 10 7 7 8 6 9 12 8 5 6 9 10 9 10 13 12 13 13 14 14 14 14 14 14 13 12 11 11 11 12 13 12 12 12 12 13 13 14 15 16 16 15 15 14 14 13
14 13 10 7 3 7 6 5 6 9 7 2 3 5 7 7 9 11 10 10 10 11 12 12 11 12 12 11 11 11 11 11 11 11 9 8 9 9 9 10 12 13 14 15 15 14 13 12 12
13 13 9 4 3 4 4 3 4 6 6 4 2 1 4 4 5 7 7 7 7 8 9 9 10 10 10 10 10 10 10 10 10 9 7 7 8 10 9 9 11 13 14 15 15 14 13 11 11
12 13 11 7 5 2 6 6 4 5 2 6 7 5 3 2 1 2 3 3 5 5 5 6 7 7 8 8 8 8 8 8 8 8 7 8 11 12 12 11 12 14 15 16 16 15 13 11 11
11 15 14 12 8 3 5 5 5 6 1 7 9 9 7 6 6 5 3 2 1 1 1 2 3 4 4 5 6 6 7 7 7 8 9 11 12 14 15 14 14 16 17 18 18 17 15 13 11
10 14 16 12 10 4 5 6 5 2 2 7 9 10 10 10 10 10 8 7 7 6 5 4 3 1 0 1 3 4 5 6 7 8 9 10 11 13 14 15 15 17 18 19 19 19 17 16 13
10 12 14 11 11 8 5 7 9 8 7 8 9 10 11 10 10 11 10 9 10 9 9 8 6 5 4 3 3 4 3 3 5 7 8 8 8 9 10 11 13 14 15 17 18 19 18 17 16
12 12 16 15 15 9 5 10 14 13 11 10 11 12 12 12 10 10 11 9 10 10 10 10 9 8 7 6 6 6 4 3 5 7 9 10 10 10 12 13 14 14 14 16 17 18 19 18 17
14 14 17 19 19 14 7 13 17 13 12 12 14 15 14 14 12 10 12 10 10 11 11 11 12 11 9 8 8 8 8 8 9 11 12 14 15 13 13 15 15 15 16 18 18 17 17 18 17
17 17 20 23 22 22 18 16 18 14 12 12 14 16 15 15 14 12 12 11 11 12 12 12 12 11 10 10 10 12 13 14 15 16 16 16 16 14 15 16 18 20 20 20 20 19 17 16 17
21 19 24 27 26 25 24 20 21 18 13 12 13 16 16 15 14 14 13 13 13 12 12 12 13 13 14 14 15 16 17 18 18 18 17 15 13 14 17 19 20 22 23 23 22 22 21 17 16
25 24 27 29 28 26 25 23 24 23 18 15 15 17 18 17 15 14 14 14 13 12 11 12 13 13 13 15 16 17 18 18 18 17 15 14 13 15 18 22 23 25 27 27 26 25 24 21 18
27 26 27 30 30 28 26 26 26 27 25 22 20 20 21 21 19 18 17 17 14 14 14 15 15 14 14 15 15 16 17 16 15 16 15 15 15 17 20 23 26 28 29 29 28 27 24 22 20
31 29 29 30 30 28 28 29 28 28 29 28 27 26 25 25 22 22 24 24 22 21 21 20 19 19 19 20 20 20 19 17 17 16 16 16 16 18 21 24 27 29 29 28 26 25 24 22 21
33 33 32 31 31 29 29 31 30 30 30 31 31 30 29 28 26 24 24 27 27 26 25 25 23 23 23 23 24 25 24 23 22 20 19 20 21 22 24 26 28 31 31 29 27 26 25 22 21
33 34 32 30 30 29 32 33 31 32 32 32 33 33 33 32 31 28 25 27 30 29 29 29 28 27 26 27 27 28 29 29 27 26 25 25 27 28 29 30 32 34 35 33 31 29 27 24 22
27 28 26 26 25 23 28 30 30 33 33 34 35 36 36 36 34 31 30 32 35 35 33 32 31 30 30 31 32 32 32 32 32 31 31 30 30 32 34 36 36 38 37 35 33 32 30 28 26
20 21 23 26 21 21 23 26 28 31 31 33 36 38 38 38 37 36 35 35 36 36 34 34 35 35 35 36 36 37 37 37 36 36 36 35 34 35 38 40 41 41 40 37 35 34 32 30 29
23 24 26 26 23 23 24 24 25 28 30 34 37 38 39 38 38 37 36 33 31 31 34 37 40 41 40 40 40 40 40 41 41 41 40 39 38 40 42 44 45 45 43 40 37 35 33 31 30
26 27 28 27 24 24 24 23 23 25 32 36 39 41 43 44 43 41 37 34 37 39 41 44 46 46 44 44 43 42 42 43 45 46 44 43 43 44 45 46 48 48 47 43 41 38 36 35 33
30 29 28 28 26 28 29 26 22 25 31 37 41 45 48 48 44 41 38 36 39 42 43 44 46 47 47 46 45 44 43 44 46 47 46 46 46 46 47 47 47 47 47 47 46 44 41 40 38
30 30 32 32 29 32 34 35 33 33 37 42 45 47 48 46 40 37 35 35 37 38 39 41 44 46 47 47 46 45 45 45 46 45 45 45 46 48 48 47 46 46 47 48 49 48 46 44 41
26 30 34 36 35 35 38 42 42 42 45 47 49 50 48 44 40 38 37 37 36 36 37 39 40 42 43 44 44 43 42 42 42 42 43 44 46 46 46 46 46 47 47 48 49 49 47 44 42
19 24 26 27 31 36 36 41 46 46 47 48 50 51 49 46 43 42 43 42 40 40 40 41 39 39 40 41 41 41 41 41 41 41 42 43 44 45 46 47 47 47 46 47 48 47 44 41 38
16 18 19 20 22 29 31 36 44 46 47 48 50 52 53 52 51 51 50 47 45 45 44 40 38 38 39 39 40 41 41 41 41 41 42 44 45 46 46 47 46 45 44 44 42 40 37 37 37
18 19 20 22 23 25 27 32 37 40 43 45 47 50 52 52 52 53 55 53 51 50 47 40 37 39 40 41 43 43 42 42 42 43 45 47 48 49 48 46 44 42 40 37 34 33 32 32 33
15 18 19 23 25 28 30 34 40 43 46 48 50 51 53 54 54 50 47 48 51 50 44 40 39 42 44 45 46 45 45 45 45 46 48 49 48 47 45 42 40 37 34 31 30 28 26 25 26
10 11 14 19 25 29 31 33 37 41 47 52 54 56 58 59 59 59 56 53 52 48 44 41 41 45 48 50 49 48 47 47 47 47 45 44 42 41 39 37 36 34 32 29 27 26 25 23 23
16 17 20 24 28 34 39 39 38 41 46 51 55 56 56 56 58 58 56 53 47 41 37 33 34 35 36 37 38 39 40 41 42 41 40 37 36 35 35 36 34 31 30 27 25 23 21 21 21
22 23 24 28 32 38 43 42 37 37 39 43 47 50 52 50 47 45 44 43 40 35 32 29 29 29 30 32 33 34 35 37 37 37 37 35 33 33 33 34 33 30 28 25 23 20 19 20 19
Wind_Direction
137 134 133 136 137 179 185 159 113 98 89 64 60 67 80 85 86 89 92 95 96 96 93 87 85 85 83 79 70 61 58 57 55 53 51 49 50 47 40 30 26 24 20 17 17 23 28 28 28
152 148 143 132 163 191 178 174 122 104 110 108 79 77 81 84 83 91 95 98 99 101 100 96 89 85 81 76 71 61 54 51 50 52 57 54 43 32 25 20 18 16 13 11 9 9 15 20 21
167 165 160 149 230 198 101 117 130 119 134 172 208 158 104 89 84 96 101 104 102 104 105 106 101 93 85 78 72 63 54 52 54 53 50 39 22 10 4 360 2 360 358 359 1 3 4 8 10
186 185 186 203 220 141 87 89 83 62 136 207 220 232 195 201 230 118 100 93 98 105 111 113 106 100 91 80 72 65 55 48 45 42 29 14 6 2 358 353 352 352 349 348 349 353 354 354 357
189 194 199 219 225 146 95 81 63 46 285 248 241 239 230 229 247 252 245 272 320 29 65 107 107 106 97 81 66 59 48 36 32 28 19 12 8 4 2 358 349 344 342 340 340 342 344 345 345
188 197 204 227 241 243 340 4 352 338 277 254 252 250 247 242 248 259 264 273 283 284 286 278 262 243 283 43 29 24 24 21 24 27 24 22 21 19 15 9 358 345 335 331 330 332 333 335 336
202 202 205 222 251 261 312 317 298 266 237 241 258 259 258 248 246 259 269 278 284 287 286 277 268 273 286 301 315 319 340 11 14 16 14 13 14 6 358 357 355 347 337 327 320 320 322 322 324
207 209 209 223 241 249 293 290 277 264 247 241 255 264 268 265 255 255 266 273 282 287 290 284 273 272 286 298 295 287 289 310 328 337 336 335 330 330 330 334 337 338 337 330 319 312 311 310 311
208 211 214 225 236 241 231 262 274 279 266 251 256 264 269 270 268 262 266 268 276 283 289 291 282 274 280 289 289 287 291 294 302 314 317 319 316 313 320 323 327 331 330 325 317 310 306 304 301
215 211 214 228 239 249 254 261 274 282 276 266 261 262 265 268 266 263 270 274 275 280 285 284 279 272 275 280 283 286 291 294 298 302 307 309 306 307 318 322 329 335 335 329 318 307 303 301 297
224 217 215 227 238 248 263 263 272 277 278 275 272 268 264 266 264 261 264 268 270 271 276 274 272 269 273 275 275 279 283 288 294 301 307 303 300 308 318 323 331 335 335 333 325 308 300 297 294
232 225 226 231 239 246 260 260 264 273 272 274 277 274 264 261 260 260 266 271 271 269 269 269 270 270 274 276 276 278 279 283 291 300 307 304 304 311 315 318 325 328 330 328 326 314 298 290 287
237 233 231 234 241 245 253 258 261 269 274 273 273 273 269 265 258 262 273 278 274 271 273 276 278 279 284 288 290 289 287 292 302 306 305 305 308 308 309 313 318 322 324 324 322 319 302 285 278
242 239 237 238 242 244 249 255 260 265 271 272 271 268 268 263 260 266 275 278 276 276 278 282 284 283 285 289 293 292 291 294 296 298 299 302 305 304 303 307 314 319 322 319 317 321 313 290 276
246 246 245 247 251 251 252 256 263 267 267 267 268 267 267 265 265 274 275 270 271 274 277 280 284 286 287 287 288 290 289 289 290 290 296 303 307 307 307 307 311 315 317 315 311 313 318 300 279
244 247 249 249 252 254 255 257 261 266 266 266 266 267 267 267 270 274 274 270 269 270 273 276 279 282 284 285 285 287 288 289 289 290 292 298 304 307 308 308 309 313 314 311 307 305 310 306 285
245 247 248 245 245 247 254 258 257 260 264 266 267 267 267 268 271 273 273 271 269 266 265 269 274 278 281 283 286 287 286 286 287 289 290 293 298 300 302 305 308 311 310 307 302 301 299 301 290
239 239 237 234 228 237 248 256 254 256 262 265 266 266 267 268 272 273 274 273 269 260 258 267 272 274 277 280 283 285 286 285 286 286 286 289 292 292 295 299 303 306 306 303 298 297 295 293 291
238 236 235 233 228 238 245 250 253 260 267 271 272 272 273 274 276 278 278 272 259 255 260 267 268 269 272 276 278 279 281 283 284 284 285 287 288 288 290 293 296 299 301 299 296 293 292 289 285
248 248 249 248 239 238 243 249 254 256 259 263 268 273 279 283 284 282 277 266 259 260 262 262 264 265 269 272 272 273 275 278 281 282 284 284 285 286 288 289 292 294 296 295 293 290 287 286 283
255 255 255 255 243 235 239 237 241 247 251 257 264 270 276 281 284 281 275 267 261 260 260 258 259 261 264 266 268 270 272 275 278 279 280 281 283 283 284 285 288 290 291 291 291 290 287 283 280
259 260 258 257 247 233 240 240 231 234 244 252 260 267 273 276 277 274 271 267 264 264 263 262 262 264 266 267 268 271 273 276 277 278 279 280 281 283 285 286 287 287 287 287 287 287 285 282 278
267 264 263 263 257 247 239 246 246 243 248 256 263 268 269 270 272 272 272 272 269 269 270 270 269 268 267 268 271 274 275 276 278 279 281 282 284 285 287 288 289 287 285 284 284 283 282 280 277
267 266 269 273 271 263 255 252 255 254 256 260 265 267 267 268 269 271 273 273 272 273 272 270 273 270 268 269 272 276 278 278 279 281 282 284 285 286 288 289 289 288 286 283 282 281 279 277 274
273 272 271 270 269 268 266 260 260 260 259 258 259 262 265 267 268 269 270 270 268 268 269 269 270 267 266 269 273 275 277 279 280 281 282 283 285 287 289 290 291 290 287 286 285 283 279 274 269
278 280 278 276 273 265 264 264 266 267 267 265 264 264 264 264 264 265 264 265 264 263 263 263 261 260 262 268 273 273 273 275 277 280 283 285 286 288 290 291 292 292 292 292 290 286 281 275 268
281 280 283 284 286 285 279 272 270 270 269 269 268 266 265 263 262 263 263 262 263 263 256 255 256 257 261 268 272 271 270 272 275 280 283 285 286 287 288 290 291 293 295 298 297 290 282 273 266
302 295 292 301 307 308 303 293 284 277 273 270 269 267 265 263 263 265 269 274 276 275 266 260 258 258 264 270 270 269 270 271 275 279 281 282 283 283 285 287 289 294 298 304 304 300 286 274 267
313 312 311 312 314 313 311 307 302 291 282 276 270 267 265 265 265 266 268 271 270 268 264 265 264 267 271 272 270 269 270 272 275 277 278 278 279 282 284 285 287 293 299 304 307 304 290 277 267
309 312 311 312 317 318 317 318 314 304 300 293 284 273 265 263 264 264 263 262 260 261 261 259 263 272 274 273 271 270 271 273 274 274 274 273 275 279 281 284 286 289 294 298 301 298 294 289 287
Height
5926 5926 5927 5927 5928 5928 5928 5929 5929 5928 5930 5932 5932 5932 5933 5932 5932 5933 5931 5930 5930 5930 5930 5931 5931 5931 5931 5931 5932 5932 5931 5931 5930 5929 5929 5929 5929 5928 5927 5926 5924 5922 5920 5919 5918 5916 5915 5914 5912
5926 5927 5928 5927 5927 5929 5931 5931 5931 5932 5933 5934 5934 5935 5935 5933 5933 5933 5932 5932 5932 5932 5932 5932 5933 5933 5933 5934 5934 5934 5934 5933 5932 5932 5931 5930 5930 5929 5928 5927 5925 5923 5921 5920 5918 5917 5916 5914 5913
5926 5927 5928 5926 5926 5929 5931 5931 5932 5933 5934 5936 5937 5937 5937 5935 5935 5935 5935 5934 5934 5934 5934 5933 5934 5934 5935 5935 5936 5936 5936 5935 5935 5934 5933 5932 5931 5931 5929 5928 5927 5925 5922 5921 5919 5917 5915 5914 5913
5926 5927 5927 5926 5926 5927 5929 5931 5931 5932 5935 5937 5937 5938 5938 5937 5936 5936 5936 5935 5935 5935 5935 5935 5935 5935 5936 5937 5937 5937 5937 5937 5936 5935 5934 5933 5932 5931 5930 5929 5928 5926 5924 5921 5920 5918 5916 5914 5912
5925 5926 5926 5924 5927 5926 5927 5929 5930 5932 5934 5936 5937 5937 5938 5938 5936 5935 5936 5936 5936 5936 5937 5937 5936 5936 5936 5937 5938 5938 5938 5937 5937 5936 5935 5934 5933 5932 5931 5929 5928 5926 5924 5922 5920 5918 5916 5914 5912
5926 5926 5926 5925 5927 5925 5925 5926 5930 5932 5934 5935 5936 5936 5937 5938 5936 5934 5935 5936 5936 5936 5936 5936 5937 5937 5937 5937 5937 5937 5937 5937 5936 5935 5934 5933 5932 5931 5929 5928 5927 5925 5923 5921 5919 5918 5916 5914 5912
5926 5926 5926 5926 5925 5924 5925 5926 5928 5930 5932 5933 5933 5933 5934 5936 5937 5934 5934 5935 5935 5935 5935 5936 5936 5937 5937 5937 5936 5935 5935 5935 5935 5934 5933 5932 5930 5929 5927 5926 5924 5923 5921 5919 5917 5916 5915 5913 5912
5925 5927 5925 5924 5923 5923 5925 5925 5925 5927 5930 5931 5931 5931 5931 5933 5934 5933 5932 5934 5934 5934 5934 5935 5935 5936 5935 5935 5934 5934 5933 5933 5933 5932 5931 5930 5929 5927 5925 5923 5922 5920 5919 5917 5915 5913 5912 5911 5909
5924 5926 5924 5922 5922 5922 5923 5924 5923 5925 5927 5929 5929 5929 5930 5930 5932 5932 5930 5932 5932 5933 5933 5934 5934 5934 5933 5933 5933 5932 5931 5930 5929 5929 5928 5928 5926 5924 5922 5921 5919 5918 5916 5914 5912 5910 5908 5907 5906
5922 5924 5923 5921 5920 5921 5920 5921 5920 5922 5924 5925 5926 5926 5927 5928 5930 5930 5929 5930 5930 5931 5932 5932 5932 5932 5932 5931 5931 5930 5929 5927 5926 5925 5925 5924 5923 5921 5919 5918 5917 5916 5914 5912 5910 5907 5904 5903 5902
5919 5921 5919 5917 5917 5918 5918 5918 5917 5919 5922 5923 5923 5924 5925 5926 5927 5928 5928 5927 5928 5929 5930 5930 5930 5930 5929 5929 5928 5927 5926 5925 5924 5922 5921 5920 5919 5918 5916 5915 5914 5912 5911 5908 5906 5903 5901 5899 5898
5914 5916 5915 5914 5914 5915 5916 5916 5915 5915 5919 5921 5921 5921 5922 5923 5924 5925 5926 5926 5926 5926 5927 5928 5928 5927 5927 5925 5924 5923 5922 5922 5921 5920 5919 5917 5916 5914 5913 5911 5910 5908 5907 5905 5902 5899 5897 5895 5894
5907 5910 5910 5909 5910 5912 5913 5912 5911 5912 5913 5916 5918 5919 5919 5919 5921 5922 5923 5924 5925 5925 5925 5925 5925 5924 5924 5922 5921 5920 5919 5918 5917 5916 5915 5914 5913 5911 5910 5909 5907 5905 5903 5900 5898 5895 5892 5891 5889
5901 5903 5905 5905 5905 5907 5909 5909 5908 5908 5909 5911 5912 5914 5915 5915 5917 5919 5920 5920 5922 5922 5922 5921 5920 5920 5919 5918 5917 5916 5915 5915 5914 5913 5912 5911 5910 5909 5907 5905 5904 5901 5899 5897 5895 5892 5888 5886 5885
5893 5897 5901 5902 5901 5902 5904 5904 5904 5903 5904 5905 5906 5908 5910 5911 5912 5914 5915 5916 5917 5917 5917 5917 5916 5915 5914 5913 5911 5910 5910 5910 5909 5908 5908 5907 5905 5904 5902 5900 5899 5897 5895 5893 5891 5889 5885 5883 5881
5886 5890 5895 5898 5898 5898 5898 5899 5899 5896 5897 5898 5899 5902 5905 5907 5908 5909 5910 5910 5911 5912 5912 5911 5911 5910 5909 5907 5905 5904 5903 5902 5902 5902 5901 5900 5899 5898 5896 5894 5893 5891 5890 5888 5886 5884 5881 5879 5877
5881 5884 5887 5889 5890 5890 5890 5892 5894 5892 5891 5892 5893 5895 5898 5900 5901 5903 5904 5905 5905 5905 5905 5905 5904 5903 5902 5901 5899 5898 5897 5896 5895 5895 5894 5893 5892 5891 5889 5888 5886 5884 5883 5881 5879 5878 5876 5875 5873
5875 5877 5878 5880 5881 5882 5882 5883 5886 5886 5885 5885 5886 5887 5889 5892 5894 5896 5897 5897 5896 5896 5897 5897 5896 5896 5894 5893 5892 5892 5891 5890 5889 5888 5887 5886 5886 5885 5883 5881 5879 5877 5876 5874 5872 5871 5869 5868 5866
5868 5870 5871 5873 5875 5875 5875 5876 5877 5878 5878 5878 5878 5879 5881 5884 5886 5888 5888 5888 5888 5888 5888 5888 5887 5886 5886 5886 5885 5884 5883 5882 5882 5881 5880 5880 5879 5877 5876 5874 5871 5869 5868 5867 5865 5864 5862 5861 5859
5864 5866 5867 5869 5871 5871 5871 5870 5871 5872 5873 5873 5873 5873 5873 5874 5876 5876 5877 5878 5879 5878 5878 5877 5877 5877 5877 5877 5876 5876 5875 5875 5874 5873 5872 5871 5870 5869 5868 5866 5864 5861 5859 5858 5857 5855 5855 5853 5852
5859 5861 5862 5863 5866 5866 5867 5868 5868 5868 5868 5868 5867 5867 5867 5867 5866 5866 5866 5866 5867 5867 5867 5866 5865 5865 5866 5866 5867 5867 5867 5867 5866 5864 5863 5862 5861 5860 5860 5858 5856 5853 5850 5848 5846 5845 5845 5844 5843
5854 5855 5855 5855 5859 5861 5862 5863 5865 5862 5861 5860 5859 5859 5858 5858 5857 5855 5855 5855 5856 5856 5855 5854 5854 5855 5856 5856 5857 5858 5858 5857 5856 5855 5854 5853 5852 5850 5849 5847 5846 5844 5841 5838 5836 5835 5834 5833 5833
5848 5848 5848 5848 5850 5853 5855 5854 5857 5857 5856 5855 5853 5851 5850 5849 5847 5845 5844 5844 5845 5845 5845 5845 5846 5846 5846 5846 5847 5848 5848 5847 5847 5846 5845 5844 5842 5841 5839 5836 5835 5833 5830 5828 5826 5824 5822 5822 5822
5841 5841 5841 5842 5843 5845 5848 5848 5845 5847 5847 5847 5844 5840 5839 5838 5837 5834 5833 5832 5833 5834 5835 5835 5835 5836 5836 5837 5837 5838 5838 5838 5838 5837 5836 5835 5833 5831 5829 5827 5824 5821 5819 5817 5815 5813 5812 5811 5811
5836 5836 5836 5835 5836 5836 5838 5837 5834 5833 5834 5834 5834 5831 5829 5828 5826 5824 5822 5821 5821 5821 5822 5823 5824 5824 5825 5826 5827 5827 5828 5828 5828 5828 5827 5825 5823 5822 5820 5817 5813 5811 5808 5807 5805 5803 5802 5801 5801
5832 5831 5831 5830 5829 5829 5829 5826 5824 5822 5821 5821 5821 5819 5817 5816 5815 5812 5810 5810 5809 5809 5810 5811 5813 5814 5815 5817 5818 5818 5818 5818 5818 5817 5816 5814 5812 5810 5809 5806 5803 5801 5799 5798 5796 5794 5792 5791 5790
5828 5826 5826 5825 5823 5821 5821 5820 5817 5814 5811 5808 5806 5804 5802 5801 5800 5797 5796 5797 5798 5798 5797 5799 5802 5804 5806 5807 5808 5808 5808 5807 5806 5805 5804 5803 5801 5799 5798 5796 5794 5792 5791 5790 5788 5786 5784 5782 5781
5824 5823 5821 5819 5815 5813 5811 5809 5807 5803 5798 5794 5790 5788 5787 5786 5786 5786 5786 5787 5788 5788 5789 5789 5790 5792 5794 5795 5796 5796 5796 5795 5795 5794 5793 5792 5790 5789 5788 5787 5786 5784 5783 5782 5781 5779 5777 5775 5774
5819 5818 5815 5812 5810 5805 5799 5799 5796 5790 5784 5778 5774 5771 5771 5771 5772 5774 5775 5776 5776 5776 5777 5779 5780 5782 5783 5782 5783 5784 5784 5785 5784 5784 5782 5781 5781 5781 5780 5779 5778 5777 5777 5776 5774 5772 5771 5769 5768
5814 5812 5810 5807 5803 5797 5790 5788 5781 5774 5768 5762 5757 5754 5753 5756 5759 5761 5763 5764 5765 5766 5768 5770 5772 5773 5773 5773 5774 5774 5775 5775 5775 5775 5774 5773 5773 5773 5773 5772 5771 5771 5771 5770 5769 5767 5766 5764 5762